📊 Raw Sensor Data
Showing records 34751 to 34775 of 84,865 total
| ID | Distance (ft) | Battery V | Battery A | Int Temp (°F) | Int Humid (%) | Ext Temp (°F) | Solar V | RSSI | SNR | Time Stamp |
|---|---|---|---|---|---|---|---|---|---|---|
| 50127 | 15.6 | 3.75 | 0 | 104 | 46 | 93 | 5.10 | -69 | 8 | 08/24/2025 04:30 PM |
| 50126 | 15.6 | 3.74 | 0 | 105 | 45 | 93 | 5.10 | -70 | 8 | 08/24/2025 04:15 PM |
| 50125 | 15.6 | 3.74 | 0 | 106 | 44 | 95 | 5.10 | -69 | 8 | 08/24/2025 04:00 PM |
| 50124 | 15.6 | 4.02 | 0 | 106 | 43 | 96 | 5.10 | -69 | 8 | 08/24/2025 03:45 PM |
| 50123 | 15.6 | 3.74 | 0 | 103 | 43 | 92 | 5.10 | -70 | 8 | 08/24/2025 03:15 PM |
| 50122 | 15.5 | 3.74 | 0 | 101 | 41 | 91 | 5.10 | -69 | 8 | 08/24/2025 02:45 PM |
| 50121 | 15.5 | 3.74 | 0 | 100 | 41 | 90 | 5.10 | -69 | 7 | 08/24/2025 02:30 PM |
| 50120 | 15.5 | 3.78 | 0 | 97 | 41 | 92 | 5.10 | -70 | 8 | 08/24/2025 02:15 PM |
| 50119 | 15.7 | 3.74 | 0 | 93 | 43 | 89 | 5.10 | -68 | 7 | 08/24/2025 02:00 PM |
| 50118 | 15.5 | 3.74 | 0 | 90 | 45 | 84 | 5.10 | -69 | 8 | 08/24/2025 01:45 PM |
| 50117 | 15.6 | 4.06 | 0 | 93 | 44 | 84 | 5.10 | -70 | 8 | 08/24/2025 01:30 PM |
| 50116 | 15.8 | 3.74 | 0 | 96 | 40 | 85 | 5.10 | -69 | 7 | 08/24/2025 01:15 PM |
| 50115 | 15.7 | 3.74 | 0 | 94 | 40 | 88 | 5.10 | -69 | 8 | 08/24/2025 01:00 PM |
| 50114 | 15.6 | 4.00 | 0 | 88 | 43 | 83 | 5.10 | -69 | 7 | 08/24/2025 12:45 PM |
| 50113 | 15.6 | 3.74 | 0 | 89 | 42 | 82 | 5.10 | -69 | 8 | 08/24/2025 12:30 PM |
| 50112 | 15.6 | 3.74 | 0 | 88 | 41 | 82 | 5.10 | -69 | 8 | 08/24/2025 12:15 PM |
| 50111 | 15.7 | 3.74 | 0 | 85 | 42 | 79 | 5.10 | -69 | 8 | 08/24/2025 12:00 PM |
| 50110 | 15.6 | 4.02 | 0 | 83 | 42 | 79 | 5.10 | -69 | 8 | 08/24/2025 11:45 AM |
| 50109 | 15.7 | 3.74 | 0 | 81 | 43 | 79 | 5.10 | -69 | 8 | 08/24/2025 11:30 AM |
| 50108 | 15.6 | 3.74 | 0 | 80 | 43 | 77 | 5.10 | -69 | 8 | 08/24/2025 11:15 AM |
| 50107 | 15.6 | 3.74 | 0 | 80 | 42 | 77 | 5.10 | -68 | 8 | 08/24/2025 11:00 AM |
| 50106 | 15.7 | 3.74 | 0 | 80 | 41 | 82 | 5.10 | -70 | 8 | 08/24/2025 10:45 AM |
| 50105 | 15.6 | 4.05 | 0 | 77 | 42 | 77 | 5.10 | -69 | 8 | 08/24/2025 10:30 AM |
| 50104 | 15.7 | 3.74 | 0 | 77 | 41 | 77 | 5.10 | -69 | 8 | 08/24/2025 10:15 AM |
| 50103 | 15.7 | 3.74 | 0 | 75 | 41 | 79 | 5.10 | -69 | 8 | 08/24/2025 10:00 AM |